Location: São Paulo
(23.5507°S, 46.6334°W)
Time: 10:40:18
(UTC-03:00)

Transit 4A - Pass Details

Date: 19 February 2026
Orbit: 864 x 977 km, 66.8° (Epoch: 11 March)

Event Time Altitude Azimuth Distance (km) Brightness Sun altitude
Rises 00:39:21 0° 193° (SSW) 3,504 11.4 -54.8°
Enters shadow 00:39:47 - 192° (SSW) 3,346 11.3 -54.8°
Reaches altitude 10° 00:42:03 10° 185° (S) 2,547 - -54.8°
Maximum altitude 00:47:31 39° 116° (ESE) 1,274 - -54.5°
Drops below altitude 10° 00:52:52 10° 48° (NE) 2,498 - -54.3°
Sets 00:55:29 0° 40° (NE) 3,430 - -54.1°
